Main page
METAR-TAF:

METAR-TAF

Airports :

Taos Regional Airport

Taos, New Mexico, United States

latitude: 36-27N, longitude: 105-40W, elevation: 7088 ft

Current weather observation

The report was made 10 minutes ago, at 18:56 UTC
Calm wind
Temperature 45°F
Humidity 31%
Pressure 30.32 in. Hg
Visibility: 10 miles
Clear sky

METAR: KSKX 211856Z AUTO 00000KT 10SM CLR 07/M09 A3032 RMK AO2 SLP276 T00721094 $

Time: 12:06 (19:06 UTC)


TAF: missing

Weather observations and forecasts of more than 4000 airports (METAR and TAF reports).

The available stations are represented by yellow and red dots on the map.

Hover mouse over dot to see the name of the station.

Then click to see weather observations and forecasts.

To change the map : click on the green buttons with a black cross to zoom in, on the green button with a dash to zoom out, or on the green arrows for adjacent maps.


METAR-TAF: